Powrót do katalogu

KUIPER-00104

AktywnyŁącznośćLEO
NORAD 65142·PAYLOAD·🇺🇸 United States

Wystrzelony Aug 11, 2025 z Cape Canaveral Space Force Station

Loading…

Następne Przeloty (najbliższe 24 godziny)

TLE

ŚwieżeSource: CelesTrak SupGP

Epoka: Sep 14, 2026, 19:41 UTC

1 65142C 25171L   26257.82019676 -.00002280  00000+0 -29854-3 0  2576
2 65142  51.9023  41.7288 0000570 107.1159  28.8188 14.79925066    11

Śledź KUIPER-00104 w czasie rzeczywistym z AllMySat

Download on the App Store